Location: Pabrico
(37.5827°N, 122.0063°W)
Time: 09:23:06
(UTC+00:00)

Cosmos 1939 Rocket - Visible Passes

Search period start: 17 July 2024 00:00
Search period end: 27 July 2024 00:00
Orbit: 512 x 558 km, 97.5° (Epoch: 16 July)

Date Brightness Start Highest point End Pass type
(mag) Time Alt. Az. Time Alt. Az. Time Alt. Az.
17 Jul 5.4 11:53:11 10° NE 11:55:45 17° E 11:58:17 10° SE visible
18 Jul 5.6 11:44:52 10° ENE 11:46:48 14° E 11:48:43 10° SE visible
19 Jul 5.9 11:37:12 10° E 11:37:50 10° E 11:38:27 10° E visible
23 Jul 3.3 12:33:07 10° NNE 12:36:51 60° E 12:40:32 10° S visible
24 Jul 3.8 12:24:16 10° NNE 12:27:52 45° E 12:31:28 10° S visible
25 Jul 4.4 12:15:26 10° NNE 12:18:53 34° E 12:22:19 10° SSE visible
26 Jul 4.8 12:06:41 10° NE 12:09:52 26° E 12:13:04 10° SSE visible
